Location: Jackson Park
(37.2862°N, 79.9123°W)
Time: 20:48:06
(UTC+00:00)

Vanguard 2 Rocket - Pass Details

Date: 10 May 2026
Orbit: 553 x 3286 km, 32.9° (Epoch: 6 June)

Event Time Altitude Azimuth Distance (km) Brightness Sun altitude
Rises 16:19:51 0° 225° (SW) 5,454 10.9 66.9°
Reaches altitude 10° 16:23:05 10° 220° (SW) 4,770 10.8 67.3°
Maximum altitude 16:37:13 52° 149° (SSE) 3,458 11.7 68.7°
Drops below altitude 10° 16:56:06 10° 81° (E) 6,220 11.3 70.0°
Sets 17:01:00 0° 78° (ENE) 7,158 11.5 70.2°
